DW6733 Weather Reports


Display with metric or nautical units.
time (UTC)temp
F
wind
direction
speed
MPH
gust
MPH
rain 1hr
in
rain 24hr
in
rain mn
in
humidity
%
barometer
mb
20260504202105 67 228 4.0 10.0 0.00 0.00 0.00 72 1007.0
20260504201405 66 219 3.0 9.0 0.00 0.00 0.00 72 1006.8
20260504200705 66 212 4.0 8.0 0.00 0.00 0.00 72 1006.7
20260504200006 66 211 3.0 8.0 0.00 0.00 0.00 73 1006.9
20260504195605 66 218 3.0 6.0 0.00 0.00 0.00 73 1007.1
20260504194905 65 230 3.0 6.0 0.00 0.00 0.00 72 1007.2
20260504194206 66 231 5.0 12.0 0.00 0.00 0.00 72 1007.6
20260504193527 66 230 5.0 16.0 0.00 0.00 0.00 70 1007.7
20260504192805 67 222 7.0 16.0 0.00 0.00 0.00 68 1007.8
20260504192126 68 232 11.0 23.0 0.00 0.00 0.00 63 1008.8
20260504191406 69 233 9.0 21.0 0.00 0.00 0.00 59 1008.6
20260504190705 69 232 11.0 22.0 0.00 0.00 0.00 58 1008.2
20260504190005 70 234 12.0 25.0 0.00 0.00 0.00 58 1008.2
20260504185605 70 234 10.0 23.0 0.00 0.00 0.00 57 1008.0
20260504184905 70 232 10.0 19.0 0.00 0.00 0.00 58 1007.8
20260504184205 71 230 7.0 19.0 0.00 0.00 0.00 58 1007.4
20260504183526 71 224 7.0 19.0 0.00 0.00 0.00 59 1007.6
20260504182805 71 219 7.0 17.0 0.00 0.00 0.00 59 1007.5
20260504182105 71 225 7.0 15.0 0.00 0.00 0.00 59 1007.2
20260504181405 71 225 8.0 19.0 0.00 0.00 0.00 57 1007.2
20260504180706 71 221 7.0 18.0 0.00 0.00 0.00 58 1007.1
20260504180026 71 211 7.0 15.0 0.00 0.00 0.00 58 1007.2
20260504175606 70 214 6.0 15.0 0.00 0.00 0.00 58 1007.3
20260504174905 70 215 6.0 13.0 0.00 0.00 0.00 59 1007.4
20260504174205 70 231 7.0 15.0 0.00 0.00 0.00 63 1007.3
20260504173505 69 224 9.0 19.0 0.00 0.00 0.00 59 1007.4
20260504172805 69 221 8.0 19.0 0.00 0.00 0.00 58 1007.5
20260504172105 69 227 7.0 13.0 0.00 0.00 0.00 58 1007.5
20260504171427 69 231 7.0 15.0 0.00 0.00 0.00 58 1007.6
20260504170706 69 224 6.0 14.0 0.00 0.00 0.00 59 1007.6
20260504150705 63 232 8.0 15.0 0.00 0.00 0.00 63 1008.4
20260504140704 61 221 6.0 15.0 0.00 0.00 0.00 64 1008.8
20260504130705 58 218 4.0 10.0 0.00 0.00 0.00 67 1009.0
20260504081403 52 213 3.0 6.0 0.00 0.00 0.00 66 1009.9
20260504080703 52 209 2.0 7.0 0.00 0.00 0.00 66 1010.0
20260504050708 54 215 3.0 7.0 0.00 0.00 0.00 60 1011.6
20260504050007 54 216 3.0 7.0 0.00 0.00 0.00 60 1011.6
20260504045608 54 218 3.0 8.0 0.00 0.00 0.00 60 1011.6
20260504044907 54 213 3.0 8.0 0.00 0.00 0.00 60 1011.7
20260504044207 54 205 2.0 7.0 0.00 0.00 0.00 60 1011.8
20260504043507 54 209 2.0 7.0 0.00 0.00 0.00 60 1011.8
20260504042807 54 205 2.0 9.0 0.00 0.00 0.00 60 1011.8
20260504042106 54 211 2.0 9.0 0.00 0.00 0.00 59 1011.9
20260504041406 54 208 3.0 11.0 0.00 0.00 0.00 60 1011.9
20260504040707 54 202 2.0 11.0 0.00 0.00 0.00 61 1012.1
20260504040008 53 226 2.0 6.0 0.00 0.00 0.00 63 1012.1
20260504035606 53 223 2.0 6.0 0.00 0.00 0.00 63 1012.1
20260504034906 53 196 1.0 4.0 0.00 0.00 0.00 64 1012.1
20260504034207 53 218 1.0 4.0 0.00 0.00 0.00 64 1012.3
20260504033506 53 200 0.0 3.0 0.00 0.00 0.00 65 1012.3
20260504032806 53 142 0.0 2.0 0.00 0.00 0.00 64 1012.3
20260504032106 52 141 0.0 2.0 0.00 0.00 0.00 64 1012.3
20260504031407 52 143 0.0 4.0 0.00 0.00 0.00 64 1012.4
20260504030706 52 168 1.0 4.0 0.00 0.00 0.00 63 1012.4
20260504030007 52 199 1.0 3.0 0.00 0.00 0.00 64 1012.5
20260504025606 52 169 1.0 4.0 0.00 0.00 0.00 65 1012.6
20260504024907 52 150 1.0 4.0 0.00 0.00 0.00 66 1012.7
20260504024227 51 111 0.0 2.0 0.00 0.00 0.00 68 1012.7
20260504023507 51 106 0.0 2.0 0.00 0.00 0.00 70 1012.7
20260504022807 52 105 0.0 3.0 0.00 0.00 0.00 73 1012.7
20260504022106 52 0 0.0 0.0 0.00 0.00 0.00 72 1012.7
20260504021406 52 0 0.0 0.0 0.00 0.00 0.00 72 1012.7
20260504020727 52 0 0.0 0.0 0.00 0.00 0.00 72 1012.7
20260504020006 52 87 1.0 3.0 0.00 0.00 0.00 71 1012.6
20260504015606 52 86 1.0 3.0 0.00 0.00 0.00 70 1012.7
20260504014906 52 75 1.0 3.0 0.00 0.00 0.00 71 1012.6
20260504014206 52 73 2.0 3.0 0.00 0.00 0.00 71 1012.5
20260504013506 52 76 2.0 3.0 0.00 0.00 0.00 70 1012.6
20260504012806 51 73 2.0 3.0 0.00 0.00 0.00 70 1012.6
20260504012107 51 74 2.0 4.0 0.00 0.00 0.00 71 1012.7
20260504011406 51 92 1.0 3.0 0.00 0.00 0.00 72 1012.8
20260504010707 51 98 1.0 3.0 0.00 0.00 0.00 71 1012.8
20260504010006 51 101 1.0 4.0 0.00 0.00 0.00 71 1012.7
20260504005627 52 89 2.0 5.0 0.00 0.00 0.00 71 1012.7
20260504004906 52 79 2.0 5.0 0.00 0.00 0.00 71 1012.6
20260504004227 52 77 1.0 4.0 0.00 0.00 0.00 71 1012.7
20260504003506 52 72 1.0 3.0 0.00 0.00 0.00 71 1012.6
20260504002807 52 79 1.0 3.0 0.00 0.00 0.00 72 1012.5
20260504002106 52 69 2.0 7.0 0.00 0.00 0.00 71 1012.6
20260504001406 52 73 2.0 7.0 0.00 0.00 0.00 71 1012.6
20260504000706 52 96 2.0 4.0 0.00 0.00 0.00 72 1012.3
20260504000027 52 98 2.0 6.0 0.00 0.00 0.00 71 1012.4
20260503235606 52 97 3.0 8.0 0.00 0.00 0.00 72 1012.2
20260503234906 52 95 3.0 8.0 0.00 0.00 0.00 71 1012.1
20260503234206 52 96 2.0 7.0 0.00 0.00 0.00 72 1012.2
20260503233527 52 99 3.0 7.0 0.00 0.00 0.00 72 1012.3
20260503232806 52 91 3.0 6.0 0.00 0.00 0.00 72 1012.5
20260503232106 52 100 2.0 6.0 0.00 0.00 0.00 71 1012.8
20260503231407 52 76 2.0 6.0 0.00 0.00 0.00 71 1012.9
20260503230726 52 83 3.0 6.0 0.00 0.00 0.00 72 1013.1
20260503230027 52 89 3.0 6.0 0.00 0.00 0.00 70 1013.2
20260503225605 52 81 3.0 6.0 0.00 0.00 0.00 69 1013.3
20260503224927 52 69 3.0 7.0 0.00 0.00 0.00 70 1013.4
20260503224205 52 68 3.0 7.0 0.00 0.00 0.00 70 1013.5
20260503223505 52 53 2.0 5.0 0.00 0.00 0.00 72 1013.8
20260503222805 52 59 2.0 5.0 0.00 0.00 0.00 71 1014.0
20260503222105 52 59 2.0 5.0 0.00 0.00 0.00 71 1014.1
20260503221426 52 59 2.0 4.0 0.00 0.00 0.00 72 1014.0
20260503220705 52 86 2.0 4.0 0.00 0.00 0.00 73 1014.1
20260503220005 52 61 1.0 4.0 0.00 0.00 0.00 74 1014.0
20260503215605 52 32 1.0 4.0 0.00 0.00 0.00 73 1014.0
20260503214906 52 272 1.0 4.0 0.00 0.00 0.00 72 1014.3
20260503214205 52 119 2.0 4.0 0.00 0.00 0.00 70 1014.4
20260503213505 52 229 2.0 6.0 0.00 0.00 0.00 72 1014.5
20260503212805 53 273 3.0 12.0 0.00 0.00 0.00 64 1014.9
20260503212105 54 268 7.0 20.0 0.00 0.00 0.00 62 1015.3
20260503211427 55 258 6.0 17.0 0.00 0.00 0.00 58 1015.3
20260503210705 56 266 7.0 20.0 0.00 0.00 0.00 51 1014.9
20260503210006 57 253 10.0 20.0 0.00 0.00 0.00 48 1015.2
20260503205605 58 252 8.0 19.0 0.00 0.00 0.00 45 1015.4
20260503204905 59 235 6.0 15.0 0.00 0.00 0.00 41 1014.7
20260503204205 59 228 7.0 15.0 0.00 0.00 0.00 39 1014.6
20260503203527 60 240 6.0 16.0 0.00 0.00 0.00 39 1014.7
20260503202805 60 234 6.0 16.0 0.00 0.00 0.00 40 1014.6